Time,TemperatureF,DewpointF,PressureIn,WindDirection,WindDirectionDegrees,WindSpeedMPH,WindSpeedGustMPH,Humidity,HourlyPrecipIn,Conditions,Clouds,dailyrainin,SoftwareType,DateUTC
2013-03-30 00:00:00,47.3,30.6,30.16,NW,315,1.1,1.3,52,0.00,,,0.00,VWS V13.00,2013-03-30 04:00:00,
2013-03-30 00:05:00,47.1,30.4,30.16,WNW,292,0.0,2.0,52,0.00,,,0.00,VWS V13.00,2013-03-30 04:05:00,
2013-03-30 00:10:00,47.1,30.4,30.16,West,270,0.0,2.0,52,0.00,,,0.00,VWS V13.00,2013-03-30 04:10:00,
2013-03-30 00:15:00,46.9,30.7,30.16,West,270,0.0,2.0,53,0.00,,,0.00,VWS V13.00,2013-03-30 04:15:00,
2013-03-30 00:20:00,46.9,30.7,30.16,NE,45,0.0,0.0,53,0.00,,,0.00,VWS V13.00,2013-03-30 04:20:00,
2013-03-30 00:25:00,46.7,31.0,30.16,WSW,248,0.0,0.0,54,0.00,,,0.00,VWS V13.00,2013-03-30 04:25:00,
2013-03-30 00:30:00,46.5,31.2,30.17,West,270,0.0,0.0,55,0.00,,,0.00,VWS V13.00,2013-03-30 04:30:00,
2013-03-30 00:35:00,46.5,31.2,30.16,WSW,248,0.0,0.0,55,0.00,,,0.00,VWS V13.00,2013-03-30 04:35:00,
2013-03-30 00:40:00,46.5,31.2,30.17,WSW,248,0.0,0.0,55,0.00,,,0.00,VWS V13.00,2013-03-30 04:40:00,
2013-03-30 00:45:00,46.5,31.2,30.17,WSW,248,0.0,0.0,55,0.00,,,0.00,VWS V13.00,2013-03-30 04:45:00,
2013-03-30 00:50:00,46.4,31.1,30.17,WNW,292,0.0,0.0,55,0.00,,,0.00,VWS V13.00,2013-03-30 04:50:00,
2013-03-30 00:55:00,46.5,31.2,30.17,WNW,292,0.0,0.0,55,0.00,,,0.00,VWS V13.00,2013-03-30 04:55:00,
2013-03-30 01:00:00,46.2,30.9,30.16,WNW,292,0.0,0.0,55,0.00,,,0.00,VWS V13.00,2013-03-30 05:00:00,
2013-03-30 01:05:00,46.2,30.9,30.16,WSW,248,0.0,0.0,55,0.00,,,0.00,VWS V13.00,2013-03-30 05:05:00,
2013-03-30 01:10:00,46.2,30.5,30.16,WNW,292,0.0,0.0,54,0.00,,,0.00,VWS V13.00,2013-03-30 05:10:00,
2013-03-30 01:15:00,46.2,30.9,30.16,WNW,292,0.0,0.0,55,0.00,,,0.00,VWS V13.00,2013-03-30 05:15:00,
2013-03-30 01:20:00,46.2,30.5,30.17,WNW,292,0.0,0.0,54,0.00,,,0.00,VWS V13.00,2013-03-30 05:20:00,
2013-03-30 01:25:00,46.2,30.5,30.16,North,0,0.0,0.0,54,0.00,,,0.00,VWS V13.00,2013-03-30 05:25:00,
2013-03-30 01:30:00,46.2,30.5,30.16,NNW,338,1.3,1.3,54,0.00,,,0.00,VWS V13.00,2013-03-30 05:30:00,
2013-03-30 01:35:00,46.2,30.5,30.16,NNW,338,0.0,1.3,54,0.00,,,0.00,VWS V13.00,2013-03-30 05:35:00,
2013-03-30 01:40:00,46.2,30.5,30.16,West,270,0.0,0.0,54,0.00,,,0.00,VWS V13.00,2013-03-30 05:40:00,
2013-03-30 01:45:00,46.2,30.5,30.16,North,0,0.0,0.0,54,0.00,,,0.00,VWS V13.00,2013-03-30 05:45:00,
2013-03-30 01:50:00,46.2,30.5,30.16,WNW,292,0.0,0.0,54,0.00,,,0.00,VWS V13.00,2013-03-30 05:50:00,
2013-03-30 01:55:00,46.2,30.5,30.16,WNW,292,0.0,0.0,54,0.00,,,0.00,VWS V13.00,2013-03-30 05:55:00,
2013-03-30 02:00:00,46.0,30.3,30.16,West,270,0.0,0.0,54,0.00,,,0.00,VWS V13.00,2013-03-30 06:00:00,
2013-03-30 02:06:00,46.0,30.3,30.16,NW,315,0.0,0.0,54,0.00,,,0.00,VWS V13.00,2013-03-30 06:06:00,
2013-03-30 02:11:00,46.0,30.3,30.16,West,270,0.0,0.0,54,0.00,,,0.00,VWS V13.00,2013-03-30 06:11:00,
2013-03-30 02:16:00,45.8,30.1,30.16,WNW,292,0.0,0.0,54,0.00,,,0.00,VWS V13.00,2013-03-30 06:16:00,
2013-03-30 02:21:00,45.6,30.4,30.16,NNW,338,0.0,0.0,55,0.00,,,0.00,VWS V13.00,2013-03-30 06:21:00,
2013-03-30 02:26:00,45.6,30.4,30.16,NNW,338,2.0,2.0,55,0.00,,,0.00,VWS V13.00,2013-03-30 06:26:00,
2013-03-30 02:31:00,45.6,30.4,30.16,West,270,0.0,2.0,55,0.00,,,0.00,VWS V13.00,2013-03-30 06:31:00,
2013-03-30 02:36:00,45.6,30.4,30.16,WNW,292,0.0,2.0,55,0.00,,,0.00,VWS V13.00,2013-03-30 06:36:00,
2013-03-30 02:41:00,45.5,30.3,30.16,NNW,338,0.0,0.0,55,0.00,,,0.00,VWS V13.00,2013-03-30 06:41:00,
2013-03-30 02:46:00,45.5,30.3,30.16,West,270,0.0,0.0,55,0.00,,,0.00,VWS V13.00,2013-03-30 06:46:00,
2013-03-30 02:51:00,45.3,30.1,30.16,WNW,292,0.0,0.0,55,0.00,,,0.00,VWS V13.00,2013-03-30 06:51:00,
2013-03-30 02:56:00,45.1,29.9,30.16,West,270,0.0,0.0,55,0.00,,,0.00,VWS V13.00,2013-03-30 06:56:00,
2013-03-30 03:01:00,45.1,29.9,30.16,North,0,0.0,0.0,55,0.00,,,0.00,VWS V13.00,2013-03-30 07:01:00,
2013-03-30 03:06:00,45.1,29.9,30.16,SW,225,0.0,0.0,55,0.00,,,0.00,VWS V13.00,2013-03-30 07:06:00,
2013-03-30 03:11:00,44.7,29.5,30.16,West,270,0.0,0.0,55,0.00,,,0.00,VWS V13.00,2013-03-30 07:11:00,
2013-03-30 03:16:00,44.7,30.0,30.16,NE,45,0.0,17.8,56,0.00,,,0.00,VWS V13.00,2013-03-30 07:16:00,
2013-03-30 03:21:00,44.6,29.9,30.16,NNE,22,0.0,0.0,56,0.00,,,0.00,VWS V13.00,2013-03-30 07:21:00,
2013-03-30 03:26:00,44.6,29.9,30.16,West,270,0.0,0.0,56,0.00,,,0.00,VWS V13.00,2013-03-30 07:26:00,
2013-03-30 03:31:00,44.4,30.1,30.16,West,270,0.0,0.0,57,0.00,,,0.00,VWS V13.00,2013-03-30 07:31:00,
2013-03-30 03:36:00,44.4,30.1,30.16,West,270,0.0,0.0,57,0.00,,,0.00,VWS V13.00,2013-03-30 07:36:00,
2013-03-30 03:41:00,44.4,30.1,30.16,West,270,0.0,0.0,57,0.00,,,0.00,VWS V13.00,2013-03-30 07:41:00,
2013-03-30 03:46:00,44.2,30.4,30.16,NNW,338,0.0,0.0,58,0.00,,,0.00,VWS V13.00,2013-03-30 07:46:00,
2013-03-30 03:52:00,44.0,30.2,30.16,SW,225,0.0,0.0,58,0.00,,,0.00,VWS V13.00,2013-03-30 07:52:00,
2013-03-30 03:57:00,43.8,30.0,30.16,WNW,292,0.0,0.0,58,0.00,,,0.00,VWS V13.00,2013-03-30 07:57:00,
2013-03-30 04:02:00,43.8,30.0,30.16,WNW,292,0.0,0.0,58,0.00,,,0.00,VWS V13.00,2013-03-30 08:02:00,
2013-03-30 04:08:00,43.8,30.0,30.16,NW,315,0.0,0.0,58,0.00,,,0.00,VWS V13.00,2013-03-30 08:08:00,
2013-03-30 04:13:00,43.8,30.0,30.16,South,180,0.0,0.0,58,0.00,,,0.00,VWS V13.00,2013-03-30 08:13:00,
2013-03-30 04:18:00,43.8,30.0,30.15,West,270,0.0,0.0,58,0.00,,,0.00,VWS V13.00,2013-03-30 08:18:00,
2013-03-30 04:23:00,43.7,29.9,30.15,West,270,0.0,0.0,58,0.00,,,0.00,VWS V13.00,2013-03-30 08:23:00,
2013-03-30 04:28:00,43.5,29.7,30.15,NW,315,1.7,1.7,58,0.00,,,0.00,VWS V13.00,2013-03-30 08:28:00,
2013-03-30 04:33:00,43.3,30.0,30.15,West,270,2.4,2.4,59,0.00,,,0.00,VWS V13.00,2013-03-30 08:33:00,
2013-03-30 04:38:00,43.1,29.8,30.16,West,270,0.0,2.4,59,0.00,,,0.00,VWS V13.00,2013-03-30 08:38:00,
2013-03-30 04:43:00,42.9,29.2,30.15,SW,225,1.1,1.1,58,0.00,,,0.00,VWS V13.00,2013-03-30 08:43:00,
2013-03-30 04:48:00,42.6,28.9,30.16,West,270,0.0,1.1,58,0.00,,,0.00,VWS V13.00,2013-03-30 08:48:00,
2013-03-30 04:53:00,42.6,29.3,30.16,West,270,0.0,1.1,59,0.00,,,0.00,VWS V13.00,2013-03-30 08:53:00,
2013-03-30 04:58:00,42.6,29.3,30.16,West,270,3.1,3.1,59,0.00,,,0.00,VWS V13.00,2013-03-30 08:58:00,
2013-03-30 05:03:00,42.4,29.1,30.16,WSW,248,0.0,0.0,59,0.00,,,0.00,VWS V13.00,2013-03-30 09:03:00,
2013-03-30 05:08:00,42.2,28.9,30.16,NNW,338,0.0,0.0,59,0.00,,,0.00,VWS V13.00,2013-03-30 09:08:00,
2013-03-30 05:13:00,42.0,28.7,30.16,WSW,248,0.0,0.0,59,0.00,,,0.00,VWS V13.00,2013-03-30 09:13:00,
2013-03-30 05:18:00,42.0,28.7,30.16,NW,315,0.0,0.0,59,0.00,,,0.00,VWS V13.00,2013-03-30 09:18:00,
2013-03-30 05:23:00,41.9,28.6,30.16,WNW,292,0.0,0.0,59,0.00,,,0.00,VWS V13.00,2013-03-30 09:23:00,
2013-03-30 05:28:00,41.9,29.0,30.16,WNW,292,0.0,0.0,60,0.00,,,0.00,VWS V13.00,2013-03-30 09:28:00,
2013-03-30 05:33:00,41.9,29.0,30.16,SSE,158,0.0,0.0,60,0.00,,,0.00,VWS V13.00,2013-03-30 09:33:00,
2013-03-30 05:34:00,41.9,29.0,30.16,SSE,158,0.0,0.0,60,0.00,,,0.00,VWS V13.00,2013-03-30 09:34:00,
2013-03-30 05:39:00,41.9,29.0,30.16,WNW,292,0.0,0.0,60,0.00,,,0.00,VWS V13.00,2013-03-30 09:39:00,
2013-03-30 05:44:00,41.9,29.0,30.16,WNW,292,0.0,3.8,60,0.00,,,0.00,VWS V13.00,2013-03-30 09:44:00,
2013-03-30 05:49:00,41.9,29.0,30.16,West,270,2.2,3.8,60,0.00,,,0.00,VWS V13.00,2013-03-30 09:49:00,
2013-03-30 05:54:00,41.7,28.9,30.17,West,270,0.0,3.8,60,0.00,,,0.00,VWS V13.00,2013-03-30 09:54:00,
2013-03-30 05:59:00,41.7,28.9,30.17,WNW,292,2.0,3.8,60,0.00,,,0.00,VWS V13.00,2013-03-30 09:59:00,
2013-03-30 06:04:00,41.7,28.9,30.17,West,270,0.6,2.0,60,0.00,,,0.00,VWS V13.00,2013-03-30 10:04:00,
2013-03-30 06:09:00,41.7,28.9,30.17,West,270,0.0,2.0,60,0.00,,,0.00,VWS V13.00,2013-03-30 10:09:00,
2013-03-30 06:14:00,41.5,29.1,30.17,West,270,0.0,2.0,61,0.00,,,0.00,VWS V13.00,2013-03-30 10:14:00,
2013-03-30 06:19:00,41.5,29.1,30.17,West,270,0.0,2.0,61,0.00,,,0.00,VWS V13.00,2013-03-30 10:19:00,
2013-03-30 06:24:00,41.3,28.9,30.18,WNW,292,0.0,0.0,61,0.00,,,0.00,VWS V13.00,2013-03-30 10:24:00,
2013-03-30 06:29:00,41.3,28.5,30.18,WSW,248,0.0,0.0,60,0.00,,,0.00,VWS V13.00,2013-03-30 10:29:00,
2013-03-30 06:34:00,41.3,28.9,30.18,West,270,2.4,2.4,61,0.00,,,0.00,VWS V13.00,2013-03-30 10:34:00,
2013-03-30 06:39:00,41.1,28.7,30.18,West,270,1.7,2.4,61,0.00,,,0.00,VWS V13.00,2013-03-30 10:39:00,
2013-03-30 06:44:00,41.1,28.7,30.18,West,270,0.0,0.0,61,0.00,,,0.00,VWS V13.00,2013-03-30 10:44:00,
2013-03-30 06:49:00,41.1,28.7,30.18,WNW,292,1.3,1.3,61,0.00,,,0.00,VWS V13.00,2013-03-30 10:49:00,
2013-03-30 06:54:00,41.1,28.7,30.19,West,270,3.5,3.5,61,0.00,,,0.00,VWS V13.00,2013-03-30 10:54:00,
2013-03-30 06:59:00,41.1,28.7,30.19,West,270,0.0,3.5,61,0.00,,,0.00,VWS V13.00,2013-03-30 10:59:00,
2013-03-30 07:04:00,41.0,28.6,30.19,WNW,292,0.0,0.0,61,0.00,,,0.00,VWS V13.00,2013-03-30 11:04:00,
2013-03-30 07:09:00,41.0,28.6,30.19,SSW,202,0.0,0.0,61,0.00,,,0.00,VWS V13.00,2013-03-30 11:09:00,
2013-03-30 07:14:00,41.1,28.7,30.19,West,270,1.7,2.0,61,0.00,,,0.00,VWS V13.00,2013-03-30 11:14:00,
2013-03-30 07:19:00,41.1,28.7,30.19,West,270,1.5,2.0,61,0.00,,,0.00,VWS V13.00,2013-03-30 11:19:00,
2013-03-30 07:24:00,41.0,28.6,30.19,West,270,1.5,1.5,61,0.00,,,0.00,VWS V13.00,2013-03-30 11:24:00,
2013-03-30 07:29:00,41.1,28.7,30.19,WSW,248,0.0,1.5,61,0.00,,,0.00,VWS V13.00,2013-03-30 11:29:00,
2013-03-30 07:34:00,41.1,28.7,30.19,West,270,0.0,1.5,61,0.00,,,0.00,VWS V13.00,2013-03-30 11:34:00,
2013-03-30 07:39:00,41.1,28.7,30.19,West,270,0.8,1.5,61,0.00,,,0.00,VWS V13.00,2013-03-30 11:39:00,
2013-03-30 07:44:00,41.3,28.9,30.19,WNW,292,0.0,1.7,61,0.00,,,0.00,VWS V13.00,2013-03-30 11:44:00,
2013-03-30 07:49:00,41.5,29.5,30.19,West,270,0.0,1.7,62,0.00,,,0.00,VWS V13.00,2013-03-30 11:49:00,
2013-03-30 07:54:00,41.7,29.7,30.19,NW,315,0.0,1.7,62,0.00,,,0.00,VWS V13.00,2013-03-30 11:54:00,
2013-03-30 07:59:00,41.9,29.9,30.19,WNW,292,0.0,2.2,62,0.00,,,0.00,VWS V13.00,2013-03-30 11:59:00,
2013-03-30 08:04:00,42.0,29.9,30.19,WNW,292,0.0,0.0,62,0.00,,,0.00,VWS V13.00,2013-03-30 12:04:00,
2013-03-30 08:09:00,42.0,29.9,30.20,West,270,2.6,2.6,62,0.00,,,0.00,VWS V13.00,2013-03-30 12:09:00,
2013-03-30 08:15:00,42.4,29.9,30.20,West,270,0.0,2.6,61,0.00,,,0.00,VWS V13.00,2013-03-30 12:15:00,
2013-03-30 08:20:00,42.6,30.1,30.20,West,270,3.8,4.6,61,0.00,,,0.00,VWS V13.00,2013-03-30 12:20:00,
2013-03-30 08:25:00,42.6,30.1,30.20,WSW,248,0.0,0.0,61,0.00,,,0.00,VWS V13.00,2013-03-30 12:25:00,
2013-03-30 08:30:00,42.9,30.4,30.20,West,270,2.6,2.6,61,0.00,,,0.00,VWS V13.00,2013-03-30 12:30:00,
2013-03-30 08:35:00,43.1,30.6,30.20,NW,315,0.0,2.6,61,0.00,,,0.00,VWS V13.00,2013-03-30 12:35:00,
2013-03-30 08:40:00,43.3,30.8,30.20,NW,315,0.0,2.6,61,0.00,,,0.00,VWS V13.00,2013-03-30 12:40:00,
2013-03-30 08:45:00,43.8,31.2,30.20,NW,315,0.0,0.0,61,0.00,,,0.00,VWS V13.00,2013-03-30 12:45:00,
2013-03-30 08:50:00,44.2,31.6,30.20,NW,315,0.0,0.0,61,0.00,,,0.00,VWS V13.00,2013-03-30 12:50:00,
2013-03-30 08:55:00,44.4,31.8,30.20,NNW,338,0.0,0.0,61,0.00,,,0.00,VWS V13.00,2013-03-30 12:55:00,
2013-03-30 09:00:00,44.7,32.5,30.20,NW,315,2.0,4.0,62,0.00,,,0.00,VWS V13.00,2013-03-30 13:00:00,
2013-03-30 09:05:00,44.9,32.3,30.20,NNW,338,3.3,3.5,61,0.00,,,0.00,VWS V13.00,2013-03-30 13:05:00,
2013-03-30 09:10:00,45.1,32.5,30.20,West,270,0.0,3.5,61,0.00,,,0.00,VWS V13.00,2013-03-30 13:10:00,
2013-03-30 09:15:00,45.3,32.7,30.20,WNW,292,0.0,3.5,61,0.00,,,0.00,VWS V13.00,2013-03-30 13:15:00,
2013-03-30 09:20:00,45.6,32.9,30.21,NNW,338,1.3,3.5,61,0.00,,,0.00,VWS V13.00,2013-03-30 13:20:00,
2013-03-30 09:25:00,46.0,33.3,30.21,NW,315,0.0,1.7,61,0.00,,,0.00,VWS V13.00,2013-03-30 13:25:00,
2013-03-30 09:30:00,46.2,33.1,30.21,NNW,338,0.0,1.7,60,0.00,,,0.00,VWS V13.00,2013-03-30 13:30:00,
2013-03-30 09:35:00,46.2,33.1,30.21,SW,225,0.0,1.7,60,0.00,,,0.00,VWS V13.00,2013-03-30 13:35:00,
2013-03-30 09:40:00,46.7,33.6,30.20,NW,315,2.6,2.6,60,0.00,,,0.00,VWS V13.00,2013-03-30 13:40:00,
2013-03-30 09:45:00,47.1,33.5,30.21,NW,315,2.2,2.6,59,0.00,,,0.00,VWS V13.00,2013-03-30 13:45:00,
2013-03-30 09:50:00,47.4,33.4,30.20,WSW,248,0.0,2.6,58,0.00,,,0.00,VWS V13.00,2013-03-30 13:50:00,
2013-03-30 09:55:00,47.6,33.6,30.21,WSW,248,2.2,2.6,58,0.00,,,0.00,VWS V13.00,2013-03-30 13:55:00,
2013-03-30 10:00:00,48.0,33.5,30.20,WSW,248,0.0,0.0,57,0.00,,,0.00,VWS V13.00,2013-03-30 14:00:00,
2013-03-30 10:05:00,48.5,33.5,30.20,North,0,1.7,2.4,56,0.00,,,0.00,VWS V13.00,2013-03-30 14:05:00,
2013-03-30 10:10:00,49.8,34.3,30.20,NNW,338,0.8,2.9,55,0.00,,,0.00,VWS V13.00,2013-03-30 14:10:00,
2013-03-30 10:15:00,53.4,36.7,30.20,NNW,338,3.5,3.5,53,0.00,,,0.00,VWS V13.00,2013-03-30 14:15:00,
2013-03-30 10:20:00,60.2,41.0,30.20,South,180,1.3,1.3,49,0.00,,,0.00,VWS V13.00,2013-03-30 14:20:00,
2013-03-30 10:25:00,62.9,40.1,30.20,South,180,4.9,4.9,43,0.00,,,0.00,VWS V13.00,2013-03-30 14:25:00,
2013-03-30 10:30:00,64.0,41.1,30.20,ESE,112,0.0,4.9,43,0.00,,,0.00,VWS V13.00,2013-03-30 14:30:00,
2013-03-30 10:35:00,64.4,39.6,30.20,South,180,2.2,4.9,40,0.00,,,0.00,VWS V13.00,2013-03-30 14:35:00,
2013-03-30 10:40:00,64.9,39.4,30.20,ESE,112,2.9,2.9,39,0.00,,,0.00,VWS V13.00,2013-03-30 14:40:00,
2013-03-30 10:45:00,64.9,40.0,30.20,SSE,158,4.6,4.6,40,0.00,,,0.00,VWS V13.00,2013-03-30 14:45:00,
2013-03-30 10:50:00,63.8,39.0,30.20,ESE,112,4.0,4.6,40,0.00,,,0.00,VWS V13.00,2013-03-30 14:50:00,
2013-03-30 10:55:00,63.6,38.9,30.20,NE,45,0.0,4.6,40,0.00,,,0.00,VWS V13.00,2013-03-30 14:55:00,
2013-03-30 11:00:00,63.6,38.9,30.19,SSW,202,4.4,4.4,40,0.00,,,0.00,VWS V13.00,2013-03-30 15:00:00,
2013-03-30 11:05:00,63.3,37.3,30.19,South,180,3.8,5.5,38,0.00,,,0.00,VWS V13.00,2013-03-30 15:05:00,
2013-03-30 11:10:00,62.7,38.0,30.19,South,180,5.3,5.5,40,0.00,,,0.00,VWS V13.00,2013-03-30 15:10:00,
2013-03-30 11:15:00,62.2,38.2,30.19,SSE,158,1.7,5.5,41,0.00,,,0.00,VWS V13.00,2013-03-30 15:15:00,
2013-03-30 11:20:00,61.8,38.5,30.19,ESE,112,1.1,1.1,42,0.00,,,0.00,VWS V13.00,2013-03-30 15:20:00,
2013-03-30 11:25:00,61.5,38.2,30.19,SSE,158,5.5,5.5,42,0.00,,,0.00,VWS V13.00,2013-03-30 15:25:00,
2013-03-30 11:30:00,60.8,37.6,30.19,SSE,158,3.3,5.5,42,0.00,,,0.00,VWS V13.00,2013-03-30 15:30:00,
2013-03-30 11:35:00,60.9,38.3,30.19,ESE,112,4.0,5.5,43,0.00,,,0.00,VWS V13.00,2013-03-30 15:35:00,
2013-03-30 11:40:00,60.6,38.0,30.19,SE,135,4.2,4.2,43,0.00,,,0.00,VWS V13.00,2013-03-30 15:40:00,
2013-03-30 11:45:00,60.6,38.0,30.19,SE,135,1.3,4.2,43,0.00,,,0.00,VWS V13.00,2013-03-30 15:45:00,
2013-03-30 11:50:00,60.8,37.6,30.19,SSE,158,4.6,4.6,42,0.00,,,0.00,VWS V13.00,2013-03-30 15:50:00,
2013-03-30 11:55:00,59.7,36.6,30.19,ESE,112,2.4,6.7,42,0.00,,,0.00,VWS V13.00,2013-03-30 15:55:00,
2013-03-30 12:00:00,58.2,36.4,30.19,South,180,3.1,3.1,44,0.00,,,0.00,VWS V13.00,2013-03-30 16:00:00,
2013-03-30 12:05:00,58.6,37.3,30.18,South,180,4.6,6.0,45,0.00,,,0.00,VWS V13.00,2013-03-30 16:05:00,
2013-03-30 12:10:00,59.5,37.6,30.18,ESE,112,1.1,6.0,44,0.00,,,0.00,VWS V13.00,2013-03-30 16:10:00,
2013-03-30 12:15:00,59.5,36.4,30.18,SSW,202,2.4,6.0,42,0.00,,,0.00,VWS V13.00,2013-03-30 16:15:00,
2013-03-30 12:20:00,58.2,36.4,30.18,South,180,0.0,0.0,44,0.00,,,0.00,VWS V13.00,2013-03-30 16:20:00,
2013-03-30 12:25:00,58.8,37.0,30.18,SSE,158,3.1,3.1,44,0.00,,,0.00,VWS V13.00,2013-03-30 16:25:00,
2013-03-30 12:30:00,60.0,36.9,30.17,SSE,158,2.9,3.1,42,0.00,,,0.00,VWS V13.00,2013-03-30 16:30:00,
2013-03-30 12:35:00,60.9,37.7,30.17,SSE,158,0.0,3.8,42,0.00,,,0.00,VWS V13.00,2013-03-30 16:35:00,
2013-03-30 12:40:00,61.3,36.8,30.17,SE,135,4.0,4.0,40,0.00,,,0.00,VWS V13.00,2013-03-30 16:40:00,
2013-03-30 12:45:00,61.8,37.2,30.17,SSE,158,5.1,5.1,40,0.00,,,0.00,VWS V13.00,2013-03-30 16:45:00,
2013-03-30 12:50:00,61.5,37.6,30.17,ESE,112,5.1,5.1,41,0.00,,,0.00,VWS V13.00,2013-03-30 16:50:00,
2013-03-30 12:55:00,60.9,37.1,30.17,SE,135,4.4,5.1,41,0.00,,,0.00,VWS V13.00,2013-03-30 16:55:00,
2013-03-30 13:00:00,59.7,36.6,30.17,East,90,4.9,4.9,42,0.00,,,0.00,VWS V13.00,2013-03-30 17:00:00,
2013-03-30 13:05:00,58.2,37.0,30.17,ESE,112,4.2,4.9,45,0.00,,,0.00,VWS V13.00,2013-03-30 17:05:00,
2013-03-30 13:11:00,57.9,37.3,30.16,ESE,112,6.9,7.1,46,0.00,,,0.00,VWS V13.00,2013-03-30 17:11:00,
2013-03-30 13:16:00,57.3,38.3,30.16,SSE,158,7.8,7.8,49,0.00,,,0.00,VWS V13.00,2013-03-30 17:16:00,
2013-03-30 13:21:00,57.0,38.6,30.16,South,180,7.8,7.8,50,0.00,,,0.00,VWS V13.00,2013-03-30 17:21:00,
2013-03-30 13:26:00,56.8,38.4,30.16,ESE,112,6.7,8.9,50,0.00,,,0.00,VWS V13.00,2013-03-30 17:26:00,
2013-03-30 13:31:00,56.3,38.4,30.16,ESE,112,4.4,8.9,51,0.00,,,0.00,VWS V13.00,2013-03-30 17:31:00,
2013-03-30 13:36:00,55.5,37.7,30.15,SE,135,9.6,9.6,51,0.00,,,0.00,VWS V13.00,2013-03-30 17:36:00,
2013-03-30 13:40:00,55.2,37.9,30.15,South,180,12.9,12.9,52,0.00,,,0.00,VWS V13.00,2013-03-30 17:40:00,
2013-03-30 13:45:00,54.6,38.3,30.15,SE,135,5.5,12.9,54,0.00,,,0.00,VWS V13.00,2013-03-30 17:45:00,
2013-03-30 13:51:00,54.1,37.8,30.15,SE,135,4.2,12.9,54,0.00,,,0.00,VWS V13.00,2013-03-30 17:51:00,
2013-03-30 13:56:00,54.1,37.4,30.15,SE,135,6.7,12.9,53,0.00,,,0.00,VWS V13.00,2013-03-30 17:56:00,
2013-03-30 14:00:00,54.1,37.8,30.14,SE,135,8.0,8.0,54,0.00,,,0.00,VWS V13.00,2013-03-30 18:00:00,
2013-03-30 14:06:00,54.1,37.8,30.14,SE,135,4.6,8.2,54,0.00,,,0.00,VWS V13.00,2013-03-30 18:06:00,
2013-03-30 14:11:00,53.7,37.5,30.14,SSE,158,9.1,9.1,54,0.00,,,0.00,VWS V13.00,2013-03-30 18:11:00,
2013-03-30 14:16:00,53.7,37.5,30.14,SSW,202,4.9,9.1,54,0.00,,,0.00,VWS V13.00,2013-03-30 18:16:00,
2013-03-30 14:21:00,53.7,37.9,30.13,SSE,158,5.3,5.3,55,0.00,,,0.00,VWS V13.00,2013-03-30 18:21:00,
2013-03-30 14:26:00,53.4,37.7,30.13,SE,135,9.1,10.5,55,0.00,,,0.00,VWS V13.00,2013-03-30 18:26:00,
2013-03-30 14:31:00,53.2,37.5,30.13,South,180,9.6,10.5,55,0.00,,,0.00,VWS V13.00,2013-03-30 18:31:00,
2013-03-30 14:36:00,52.8,37.5,30.14,WSW,248,6.4,10.5,56,0.00,,,0.00,VWS V13.00,2013-03-30 18:36:00,
2013-03-30 14:41:00,52.8,37.5,30.13,SE,135,6.0,6.0,56,0.00,,,0.00,VWS V13.00,2013-03-30 18:41:00,
2013-03-30 14:46:00,52.7,36.5,30.13,East,90,4.4,6.0,54,0.00,,,0.00,VWS V13.00,2013-03-30 18:46:00,
2013-03-30 14:51:00,52.7,36.1,30.13,SE,135,3.8,9.6,53,0.00,,,0.00,VWS V13.00,2013-03-30 18:51:00,
2013-03-30 14:56:00,52.5,35.9,30.13,SSE,158,7.3,9.6,53,0.00,,,0.00,VWS V13.00,2013-03-30 18:56:00,
2013-03-30 15:01:00,52.8,36.6,30.13,SSE,158,6.7,6.7,54,0.00,,,0.00,VWS V13.00,2013-03-30 19:01:00,
2013-03-30 15:06:00,53.0,36.3,30.12,SSW,202,3.1,6.7,53,0.00,,,0.00,VWS V13.00,2013-03-30 19:06:00,
2013-03-30 15:11:00,53.0,36.3,30.12,SSE,158,5.3,8.0,53,0.00,,,0.00,VWS V13.00,2013-03-30 19:11:00,
2013-03-30 15:17:00,52.8,36.6,30.12,South,180,7.6,8.0,54,0.00,,,0.00,VWS V13.00,2013-03-30 19:17:00,
2013-03-30 15:22:00,52.8,37.1,30.12,SSW,202,4.9,4.9,55,0.00,,,0.00,VWS V13.00,2013-03-30 19:22:00,
2013-03-30 15:27:00,52.8,37.5,30.12,SE,135,8.9,8.9,56,0.00,,,0.00,VWS V13.00,2013-03-30 19:27:00,
2013-03-30 15:32:00,52.1,37.3,30.12,SSW,202,10.7,10.7,57,0.00,,,0.00,VWS V13.00,2013-03-30 19:32:00,
2013-03-30 15:37:00,51.0,37.2,30.11,SSE,158,4.9,10.7,59,0.00,,,0.00,VWS V13.00,2013-03-30 19:37:00,
2013-03-30 15:42:00,50.7,37.3,30.11,East,90,10.2,10.2,60,0.00,,,0.00,VWS V13.00,2013-03-30 19:42:00,
2013-03-30 15:47:00,50.9,38.0,30.12,SE,135,5.3,10.2,61,0.00,,,0.00,VWS V13.00,2013-03-30 19:47:00,
2013-03-30 15:52:00,50.9,38.0,30.12,ESE,112,5.5,10.2,61,0.00,,,0.00,VWS V13.00,2013-03-30 19:52:00,
2013-03-30 15:57:00,50.9,38.4,30.12,ESE,112,8.5,10.2,62,0.00,,,0.00,VWS V13.00,2013-03-30 19:57:00,
2013-03-30 16:02:00,51.2,39.0,30.11,South,180,7.1,7.1,63,0.00,,,0.00,VWS V13.00,2013-03-30 20:02:00,
2013-03-30 16:07:00,51.6,39.4,30.11,South,180,6.0,7.1,63,0.00,,,0.00,VWS V13.00,2013-03-30 20:07:00,
2013-03-30 16:12:00,51.6,39.0,30.11,SSE,158,3.8,7.1,62,0.00,,,0.00,VWS V13.00,2013-03-30 20:12:00,
2013-03-30 16:17:00,51.6,39.0,30.11,ESE,112,1.7,7.1,62,0.00,,,0.00,VWS V13.00,2013-03-30 20:17:00,
2013-03-30 16:22:00,51.6,39.0,30.11,SE,135,5.1,5.1,62,0.00,,,0.00,VWS V13.00,2013-03-30 20:22:00,
2013-03-30 16:27:00,51.2,38.6,30.10,SE,135,2.6,6.2,62,0.00,,,0.00,VWS V13.00,2013-03-30 20:27:00,
2013-03-30 16:32:00,51.2,39.0,30.10,SSE,158,8.2,8.2,63,0.00,,,0.00,VWS V13.00,2013-03-30 20:32:00,
2013-03-30 16:37:00,51.6,39.0,30.10,SSW,202,3.1,8.2,62,0.00,,,0.00,VWS V13.00,2013-03-30 20:37:00,
2013-03-30 16:42:00,51.6,39.0,30.10,ESE,112,6.2,6.2,62,0.00,,,0.00,VWS V13.00,2013-03-30 20:42:00,
2013-03-30 16:47:00,51.4,38.8,30.11,ESE,112,5.1,6.2,62,0.00,,,0.00,VWS V13.00,2013-03-30 20:47:00,
2013-03-30 16:52:00,51.0,38.5,30.10,ESE,112,5.1,7.3,62,0.00,,,0.00,VWS V13.00,2013-03-30 20:52:00,
2013-03-30 16:57:00,51.2,39.0,30.10,East,90,1.5,7.3,63,0.00,,,0.00,VWS V13.00,2013-03-30 20:57:00,
2013-03-30 17:02:00,51.6,39.0,30.10,SE,135,4.9,4.9,62,0.00,,,0.00,VWS V13.00,2013-03-30 21:02:00,
2013-03-30 17:07:00,52.1,39.5,30.10,ESE,112,5.3,5.3,62,0.00,,,0.00,VWS V13.00,2013-03-30 21:07:00,
2013-03-30 17:13:00,52.3,39.3,30.10,ESE,112,4.6,5.3,61,0.00,,,0.00,VWS V13.00,2013-03-30 21:13:00,
2013-03-30 17:18:00,52.5,39.5,30.09,South,180,2.0,5.3,61,0.00,,,0.00,VWS V13.00,2013-03-30 21:18:00,
2013-03-30 17:23:00,52.5,38.6,30.10,SE,135,0.0,4.6,59,0.00,,,0.00,VWS V13.00,2013-03-30 21:23:00,
2013-03-30 17:28:00,52.8,38.5,30.10,SSE,158,1.5,4.6,58,0.00,,,0.00,VWS V13.00,2013-03-30 21:28:00,
2013-03-30 17:33:00,53.2,38.8,30.10,SE,135,1.5,5.5,58,0.00,,,0.00,VWS V13.00,2013-03-30 21:33:00,
2013-03-30 17:38:00,53.4,39.0,30.10,SSE,158,2.4,5.5,58,0.00,,,0.00,VWS V13.00,2013-03-30 21:38:00,
2013-03-30 17:43:00,53.6,38.8,30.10,East,90,1.7,1.7,57,0.00,,,0.00,VWS V13.00,2013-03-30 21:43:00,
2013-03-30 17:48:00,53.7,37.9,30.10,ESE,112,1.7,1.7,55,0.00,,,0.00,VWS V13.00,2013-03-30 21:48:00,
2013-03-30 17:53:00,53.7,37.5,30.10,South,180,4.4,4.4,54,0.00,,,0.00,VWS V13.00,2013-03-30 21:53:00,
2013-03-30 17:58:00,53.9,37.2,30.10,ESE,112,4.0,4.4,53,0.00,,,0.00,VWS V13.00,2013-03-30 21:58:00,
2013-03-30 18:03:00,54.3,36.1,30.10,SE,135,3.1,4.0,50,0.00,,,0.00,VWS V13.00,2013-03-30 22:03:00,
2013-03-30 18:08:00,54.6,35.8,30.10,South,180,2.2,4.2,49,0.00,,,0.00,VWS V13.00,2013-03-30 22:08:00,
2013-03-30 18:13:00,55.2,35.9,30.10,East,90,0.0,4.2,48,0.00,,,0.00,VWS V13.00,2013-03-30 22:13:00,
2013-03-30 18:18:00,55.7,34.7,30.10,WSW,248,8.7,8.7,45,0.00,,,0.00,VWS V13.00,2013-03-30 22:18:00,
2013-03-30 18:23:00,56.3,33.5,30.11,West,270,5.5,5.5,42,0.00,,,0.00,VWS V13.00,2013-03-30 22:23:00,
2013-03-30 18:28:00,57.0,32.9,30.11,WSW,248,8.0,10.0,40,0.00,,,0.00,VWS V13.00,2013-03-30 22:28:00,
2013-03-30 18:33:00,57.3,32.6,30.11,West,270,0.0,10.0,39,0.00,,,0.00,VWS V13.00,2013-03-30 22:33:00,
2013-03-30 18:38:00,57.3,34.4,30.11,ESE,112,1.1,10.0,42,0.00,,,0.00,VWS V13.00,2013-03-30 22:38:00,
2013-03-30 18:43:00,55.0,35.7,30.11,East,90,4.9,6.7,48,0.00,,,0.00,VWS V13.00,2013-03-30 22:43:00,
2013-03-30 18:48:00,52.5,35.9,30.11,SSE,158,12.7,12.7,53,0.00,,,0.00,VWS V13.00,2013-03-30 22:48:00,
2013-03-30 18:53:00,50.7,35.6,30.11,SSE,158,12.7,15.8,56,0.00,,,0.00,VWS V13.00,2013-03-30 22:53:00,
2013-03-30 18:58:00,48.7,34.6,30.11,SSE,158,10.0,15.8,58,0.00,,,0.00,VWS V13.00,2013-03-30 22:58:00,
2013-03-30 19:03:00,48.2,35.0,30.11,SSE,158,11.8,14.5,60,0.00,,,0.00,VWS V13.00,2013-03-30 23:03:00,
2013-03-30 19:08:00,47.6,35.6,30.11,South,180,11.4,14.5,63,0.00,,,0.00,VWS V13.00,2013-03-30 23:08:00,
2013-03-30 19:13:00,47.1,35.2,30.11,SSE,158,11.1,14.5,63,0.00,,,0.00,VWS V13.00,2013-03-30 23:13:00,
2013-03-30 19:18:00,47.1,35.6,30.12,SE,135,15.2,16.1,64,0.00,,,0.00,VWS V13.00,2013-03-30 23:18:00,
2013-03-30 19:23:00,47.1,35.6,30.12,SSE,158,7.3,12.7,64,0.00,,,0.00,VWS V13.00,2013-03-30 23:23:00,
2013-03-30 19:28:00,47.1,35.2,30.12,SE,135,9.3,13.8,63,0.00,,,0.00,VWS V13.00,2013-03-30 23:28:00,
2013-03-30 19:33:00,47.1,35.2,30.12,SSE,158,10.2,13.8,63,0.00,,,0.00,VWS V13.00,2013-03-30 23:33:00,
2013-03-30 19:38:00,47.1,34.8,30.12,SSE,158,13.1,15.8,62,0.00,,,0.00,VWS V13.00,2013-03-30 23:38:00,
2013-03-30 19:43:00,46.9,35.0,30.12,SE,135,6.9,18.3,63,0.00,,,0.00,VWS V13.00,2013-03-30 23:43:00,
2013-03-30 19:48:00,46.9,35.0,30.12,SSE,158,15.2,18.3,63,0.00,,,0.00,VWS V13.00,2013-03-30 23:48:00,
2013-03-30 19:53:00,47.1,35.2,30.12,SSE,158,7.3,18.3,63,0.00,,,0.00,VWS V13.00,2013-03-30 23:53:00,
2013-03-30 19:59:00,47.1,35.2,30.12,SSE,158,9.1,19.4,63,0.00,,,0.00,VWS V13.00,2013-03-30 23:59:00,
2013-03-30 20:04:00,47.1,34.8,30.12,SE,135,7.3,7.3,62,0.00,,,0.00,VWS V13.00,2013-03-31 00:04:00,
2013-03-30 20:09:00,47.1,35.2,30.13,SSE,158,9.8,10.5,63,0.00,,,0.00,VWS V13.00,2013-03-31 00:09:00,
2013-03-30 20:14:00,47.3,35.0,30.13,SE,135,13.6,14.0,62,0.00,,,0.00,VWS V13.00,2013-03-31 00:14:00,
2013-03-30 20:19:00,47.4,35.0,30.13,South,180,16.5,16.5,62,0.00,,,0.00,VWS V13.00,2013-03-31 00:19:00,
2013-03-30 20:24:00,47.6,34.4,30.13,ESE,112,18.3,18.3,60,0.00,,,0.00,VWS V13.00,2013-03-31 00:24:00,
2013-03-30 20:29:00,47.6,35.2,30.13,SE,135,8.0,18.3,62,0.00,,,0.00,VWS V13.00,2013-03-31 00:29:00,
2013-03-30 20:34:00,47.4,35.5,30.14,SE,135,16.3,18.3,63,0.00,,,0.00,VWS V13.00,2013-03-31 00:34:00,
2013-03-30 20:39:00,47.4,35.5,30.13,SSE,158,8.5,18.3,63,0.00,,,0.00,VWS V13.00,2013-03-31 00:39:00,
2013-03-30 20:44:00,47.3,35.8,30.14,South,180,13.4,14.7,64,0.00,,,0.00,VWS V13.00,2013-03-31 00:44:00,
2013-03-30 20:49:00,47.1,34.8,30.14,SSE,158,11.6,14.7,62,0.00,,,0.00,VWS V13.00,2013-03-31 00:49:00,
2013-03-30 20:54:00,46.7,34.8,30.14,SSE,158,7.6,14.7,63,0.00,,,0.00,VWS V13.00,2013-03-31 00:54:00,
2013-03-30 20:59:00,46.2,35.1,30.14,SSE,158,12.0,14.7,65,0.00,,,0.00,VWS V13.00,2013-03-31 00:59:00,
2013-03-30 21:04:00,46.0,35.3,30.14,SSE,158,15.6,15.6,66,0.00,,,0.00,VWS V13.00,2013-03-31 01:04:00,
2013-03-30 21:09:00,46.0,36.0,30.14,South,180,12.5,20.3,68,0.00,,,0.00,VWS V13.00,2013-03-31 01:09:00,
2013-03-30 21:14:00,45.6,36.0,30.15,SSE,158,14.9,20.3,69,0.00,,,0.00,VWS V13.00,2013-03-31 01:14:00,
2013-03-30 21:19:00,45.5,36.3,30.14,SSE,158,14.7,20.3,70,0.00,,,0.00,VWS V13.00,2013-03-31 01:19:00,
2013-03-30 21:24:00,45.3,36.5,30.14,SSW,202,12.0,15.4,71,0.00,,,0.00,VWS V13.00,2013-03-31 01:24:00,
2013-03-30 21:29:00,45.1,36.3,30.14,SSE,158,13.1,15.4,71,0.00,,,0.00,VWS V13.00,2013-03-31 01:29:00,
2013-03-30 21:34:00,45.1,36.3,30.15,SE,135,13.1,15.4,71,0.00,,,0.00,VWS V13.00,2013-03-31 01:34:00,
2013-03-30 21:39:00,45.1,36.3,30.15,SSE,158,11.4,15.4,71,0.00,,,0.00,VWS V13.00,2013-03-31 01:39:00,
2013-03-30 21:44:00,45.1,36.3,30.15,East,90,21.2,21.2,71,0.00,,,0.00,VWS V13.00,2013-03-31 01:44:00,
2013-03-30 21:49:00,45.1,36.3,30.15,SSE,158,6.0,21.2,71,0.00,,,0.00,VWS V13.00,2013-03-31 01:49:00,
2013-03-30 21:54:00,45.1,36.3,30.16,SSE,158,8.9,21.2,71,0.00,,,0.00,VWS V13.00,2013-03-31 01:54:00,
2013-03-30 21:59:00,45.1,36.3,30.16,SSE,158,8.9,21.2,71,0.00,,,0.00,VWS V13.00,2013-03-31 01:59:00,
2013-03-30 22:04:00,45.1,36.3,30.16,ESE,112,7.3,15.8,71,0.00,,,0.00,VWS V13.00,2013-03-31 02:04:00,
2013-03-30 22:09:00,45.1,35.9,30.17,SSE,158,11.6,15.8,70,0.00,,,0.00,VWS V13.00,2013-03-31 02:09:00,
2013-03-30 22:15:00,45.1,35.9,30.16,SSE,158,11.8,15.8,70,0.00,,,0.00,VWS V13.00,2013-03-31 02:15:00,
2013-03-30 22:20:00,45.1,36.3,30.17,South,180,6.7,15.8,71,0.00,,,0.00,VWS V13.00,2013-03-31 02:20:00,
2013-03-30 22:25:00,45.1,36.3,30.17,South,180,12.5,12.5,71,0.00,,,0.00,VWS V13.00,2013-03-31 02:25:00,
2013-03-30 22:30:00,45.1,36.6,30.17,SE,135,8.0,12.5,72,0.00,,,0.00,VWS V13.00,2013-03-31 02:30:00,
2013-03-30 22:35:00,44.9,36.4,30.17,SSE,158,11.1,14.3,72,0.00,,,0.00,VWS V13.00,2013-03-31 02:35:00,
2013-03-30 22:40:00,44.9,36.4,30.18,ESE,112,13.1,14.3,72,0.00,,,0.00,VWS V13.00,2013-03-31 02:40:00,
2013-03-30 22:45:00,44.9,36.4,30.17,South,180,11.6,13.1,72,0.00,,,0.00,VWS V13.00,2013-03-31 02:45:00,
2013-03-30 22:50:00,44.9,36.8,30.17,SE,135,6.7,13.1,73,0.00,,,0.00,VWS V13.00,2013-03-31 02:50:00,
2013-03-30 22:55:00,44.7,36.6,30.17,South,180,12.7,13.1,73,0.00,,,0.00,VWS V13.00,2013-03-31 02:55:00,
2013-03-30 23:00:00,44.7,36.6,30.17,SSE,158,9.3,9.3,73,0.00,,,0.00,VWS V13.00,2013-03-31 03:00:00,
2013-03-30 23:05:00,44.7,36.9,30.16,SSE,158,7.6,9.3,74,0.00,,,0.00,VWS V13.00,2013-03-31 03:05:00,
2013-03-30 23:10:00,44.6,36.8,30.16,South,180,12.3,12.3,74,0.00,,,0.00,VWS V13.00,2013-03-31 03:10:00,
2013-03-30 23:15:00,44.6,36.5,30.17,SSE,158,10.2,12.3,73,0.00,,,0.00,VWS V13.00,2013-03-31 03:15:00,
2013-03-30 23:20:00,44.7,36.2,30.17,SSE,158,5.3,5.3,72,0.00,,,0.00,VWS V13.00,2013-03-31 03:20:00,
2013-03-30 23:25:00,44.7,36.2,30.16,SE,135,11.6,13.1,72,0.00,,,0.00,VWS V13.00,2013-03-31 03:25:00,
2013-03-30 23:30:00,44.7,35.9,30.16,SSE,158,9.1,14.9,71,0.00,,,0.00,VWS V13.00,2013-03-31 03:30:00,
2013-03-30 23:35:00,44.7,35.9,30.16,SSE,158,7.3,14.9,71,0.00,,,0.00,VWS V13.00,2013-03-31 03:35:00,
2013-03-30 23:40:00,44.7,35.5,30.16,ESE,112,6.4,6.4,70,0.00,,,0.00,VWS V13.00,2013-03-31 03:40:00,
2013-03-30 23:45:00,44.7,35.5,30.16,SSE,158,7.3,9.6,70,0.00,,,0.00,VWS V13.00,2013-03-31 03:45:00,
2013-03-30 23:50:00,44.9,35.4,30.16,SSE,158,9.6,9.6,69,0.00,,,0.00,VWS V13.00,2013-03-31 03:50:00,
2013-03-30 23:55:00,44.9,35.0,30.16,South,180,12.3,12.3,68,0.00,,,0.00,VWS V13.00,2013-03-31 03:55:00,